Flag Weather past 2 weeks in Drammen, Norway

Now
48 °F

Cool.


Feels Like: 38 °F
Forecast: 31 / 35 °F
Wind: 45 mph from Southeast

Location: Oslo / Fornebu

Current Time: Nov 28, 2014 at 1:34:47 PM

Latest Report: Nov 28, 2014 at 12:50 PM


Visibility: N/A

Pressure: 30.12 "Hg

Humidity: 66%

Dew point: 37 °F

Location of DrammenLocation

Historic Weather in Drammen — Graph

°F

Drammen temperature yesterday

Maximum temperature yesterday: 50 °F (at 12:50 AM)
Minimum temperature yesterday: 46 °F (at 2:50 PM)
Average temperature yesterday: 48 °F

Past Weeks' High & Low Weather Summary

 TemperatureHumidityPressure
High54 °F (Nov 15, 3:50 AM)100% (Nov 18, 4:20 AM)30.45 "Hg (Nov 18, 4:20 AM)
Low45 °F (Nov 21, 12:50 PM)58% (Nov 22, 10:50 AM)29.77 "Hg (Nov 23, 11:50 PM)
Average49 °F80%30.07 "Hg
* Reported Nov 13 12:20 PM — Nov 28 12:20 PM, Drammen, Weather by CustomWeather, © 2014

Note: Actual official high and low records may vary slightly from our data, if they occured in-between our weather recording intervals... More about our weather records

Advertising

Drammen weather history for previous 24 hours

 ConditionsComfort  
Time TempWeatherWind HumidityBarometerVisibility
12:20 PM
Nov 28
48 °FCool.50 mph66%30.09 "HgN/A
11:50 AM48 °FCool.46 mph66%30.12 "HgN/A
11:20 AM48 °FCool.50 mph66%30.09 "HgN/A
10:50 AM48 °FCool.48 mph66%30.09 "HgN/A
10:20 AM48 °FCool.48 mph66%30.09 "HgN/A
9:50 AM48 °FCool.46 mph66%30.07 "HgN/A
9:20 AM48 °FCool.46 mph66%30.07 "HgN/A
8:50 AM48 °FCool.51 mph66%30.07 "HgN/A
8:20 AM48 °FCool.51 mph66%30.04 "HgN/A
7:50 AM48 °FCool.50 mph71%30.04 "HgN/A
7:20 AM48 °FCool.51 mph71%30.04 "HgN/A
6:50 AM48 °FCool.47 mph71%30.01 "HgN/A
6:20 AM48 °FSprinkles. Overcast.45 mph71%30.01 "HgN/A
5:50 AM46 °FCool.48 mph76%30.01 "HgN/A
5:20 AM46 °FCool.47 mph76%30.01 "HgN/A
4:50 AM48 °FLight rain. Overcast.43 mph82%30.01 "Hg4 mi
4:20 AM46 °FLight rain. Overcast.43 mph82%30.01 "HgN/A
3:50 AM46 °FLight rain. Overcast.40 mph82%30.01 "Hg6 mi
3:20 AM46 °FLight rain. Overcast.43 mph82%30.01 "HgN/A
2:50 AM46 °FSprinkles. Overcast.41 mph76%30.01 "Hg5 mi
2:20 AM46 °FSprinkles. Overcast.39 mph82%30.01 "HgN/A
1:50 AM46 °FSprinkles. Overcast.41 mph76%30.01 "HgN/A
1:20 AM46 °FDrizzle. Overcast.39 mph76%30.01 "HgN/A
12:50 AM48 °FCool.39 mph71%30.01 "HgN/A
12:20 AM48 °FCool.41 mph71%29.98 "HgN/A
11:50 PM
Nov 27
48 °FSprinkles. Overcast.41 mph71%29.98 "HgN/A
11:20 PM48 °FSprinkles. Overcast.37 mph71%29.98 "HgN/A
10:50 PM48 °FLight rain. Overcast.39 mph71%29.98 "HgN/A
10:20 PM48 °FCool.36 mph66%29.98 "HgN/A
9:50 PM48 °FCool.35 mph66%29.98 "HgN/A
9:20 PM46 °FCool.37 mph76%29.98 "HgN/A
8:50 PM50 °FCool.40 mph62%29.95 "HgN/A
8:20 PM48 °FCool.41 mph66%29.95 "HgN/A
7:50 PM48 °FCool.45 mph66%29.95 "HgN/A
7:20 PM48 °FCool.44 mph66%29.95 "HgN/A
6:50 PM48 °FCool.43 mph66%29.95 "HgN/A
6:20 PM48 °FCool.41 mph66%29.92 "HgN/A
5:50 PM48 °FCool.43 mph66%29.92 "HgN/A
5:20 PM48 °FCool.41 mph71%29.92 "HgN/A
4:50 PM48 °FCool.41 mph71%29.92 "HgN/A
4:20 PM48 °FCool.44 mph71%29.92 "HgN/A
3:50 PM46 °FCool.46 mph82%29.89 "HgN/A
3:20 PM48 °FSprinkles. Cloudy.43 mph82%29.92 "HgN/A
2:50 PM46 °FSprinkles. Cloudy.39 mph93%29.89 "Hg6 mi
2:20 PM48 °FSprinkles. Cloudy.37 mph82%29.92 "HgN/A
1:50 PM48 °FCool.44 mph82%29.89 "HgN/A
1:20 PM48 °FCool.43 mph76%29.89 "HgN/A
Weather by CustomWeather, © 2014

See weather overviewHow to use our weather pages